Location: Sternwarte ZA, Rosenfeld-Brittheim
(48.2889°N, 8.6789°E)
Time: 00:52:08
(UTC+02:00)

ISS - Pass Details

Date: 15 September 2018
Orbit: 403 x 408 km, 51.6° (Epoch: 23 September)

Event Time Altitude Azimuth Distance (km) Brightness Sun altitude
Exits shadow 04:59:59 83° 84° (E) 413 -3.9 -20.0°
Drops below altitude 10° 05:03:10 10° 112° (ESE) 1,459 -0.5 -19.6°
Sets 05:05:14 0° 112° (ESE) 2,315 0.6 -19.3°
